Estación de San Nicolás
Ultimos registro cada 15 minutos 20
| N° | Estación | Fecha / Hora | Temperatura | Humedad | Lluvia | Velocidad | Dirección | Radiación | Presion |
| 20 | San Nicolás | 04-09-2026 04:45 | 3,9 | 91 | 0 | 0,4 | 255 | 0 | 1023,6 |
| 19 | San Nicolás | 04-09-2026 04:30 | 4 | 92 | 0 | 0,9 | 265 | 0 | 1023,5 |
| 18 | San Nicolás | 04-09-2026 04:15 | 4,1 | 91 | 0 | 0,9 | 255 | 0 | 1023,5 |
| 17 | San Nicolás | 04-09-2026 04:00 | 4,1 | 91 | 0 | 0,9 | 262 | 0 | 1023,3 |
| 16 | San Nicolás | 04-09-2026 03:45 | 4,3 | 91 | 0 | 0,9 | 263 | 0 | 1023,6 |
| 15 | San Nicolás | 04-09-2026 03:30 | 4,3 | 90 | 0 | 0,4 | 277 | 0 | 1023,7 |
| 14 | San Nicolás | 04-09-2026 03:15 | 4,4 | 90 | 0 | 0,4 | 276 | 0 | 1023,6 |
| 13 | San Nicolás | 04-09-2026 03:00 | 4,6 | 89 | 0 | 0,4 | 277 | 0 | 1023,7 |
| 12 | San Nicolás | 04-09-2026 02:45 | 4,8 | 89 | 0 | 0,9 | 275 | 0 | 1024 |
| 11 | San Nicolás | 04-09-2026 02:30 | 5 | 88 | 0 | 1,8 | 278 | 0 | 1024 |
| 10 | San Nicolás | 04-09-2026 02:15 | 5,2 | 87 | 0 | 1,3 | 265 | 0 | 1024,1 |
| 9 | San Nicolás | 04-09-2026 02:00 | 5,6 | 86 | 0 | 1,3 | 265 | 0 | 1024 |
| 8 | San Nicolás | 04-09-2026 01:45 | 5,9 | 86 | 0 | 0,4 | 252 | 0 | 1023,9 |
| 7 | San Nicolás | 04-09-2026 01:30 | 6 | 86 | 0 | 1,8 | 259 | 0 | 1023,9 |
| 6 | San Nicolás | 04-09-2026 01:15 | 6 | 86 | 0 | 3,1 | 242 | 0 | 1024,2 |
| 5 | San Nicolás | 04-09-2026 01:00 | 6,4 | 84 | 0 | 0,4 | 284 | 0 | 1024,1 |
| 4 | San Nicolás | 04-09-2026 00:45 | 6,7 | 83 | 0 | 1,3 | 271 | 0 | 1024,3 |
| 3 | San Nicolás | 04-09-2026 00:30 | 7,1 | 82 | 0 | 0,9 | 251 | 0 | 1024,2 |
| 2 | San Nicolás | 04-09-2026 00:15 | 7,2 | 82 | 0 | 2,2 | 247 | 0 | 1024,3 |
| 1 | San Nicolás | 04-09-2026 00:00 | 7,4 | 82 | 0 | 1,3 | 272 | 0 | 1024,3 |